STARLINK-1912 (47178 NORAD) Tracking and Keplerian Element Data

This shows tracking and keplerian element data for the satellite.

Feedback or suggestion? Click here.




ElementValue
Catalog47178
NameSTARLINK-1912
Epoch Orbit176
Epoch Day15.91667824
Epoch Year2021
RAAN98.8404
Inclination53.0543
Eccentricity0.0001401
Argument of Perigee56.9377
Mean Anonmoly180.2102
Mean Motion15.49320632
Decay Rate-0.01081263
L11 47178U 20088BJ 21015.91667824 -.01081263 00000-0 -21448-1 0 9990
L22 47178 53.0543 98.8404 0001401 56.9377 180.2102 15.49320632 1768

Live tracking and technical data element details for STARLINK-1912 (NORAD 47178). STARLINK-1912 can be tracked NOW for your location showing map with azimuth and elevation plus other details from your city location.

Track the satellite on the map from your city or location and see movement details for azimuth, elevation, latitude, longitude, range, height, and movement on the map or in text.







IsCatalogInMostPopularTable: catalog: 47178, numindb: 23
Update: records affected: 1



GetName: 47178 STARLINK-1912

Hit Count: updated at: Sun, 17 Jan 2021 09:14:37 GMT